| time (UTC) | temp C | wind direction | speed KPH | gust KPH | rain 1hr cm | rain 24hr cm | rain mn cm | humidity % | barometer mb |
| 20260507070009 | 10 | 157 | 0.0 | 8.0 | 0.00 | 0.00 | 0.00 | 48 | 1012.3 |
| 20260507065003 | 10 | 153 | 1.6 | 11.3 | 0.00 | 0.00 | 0.00 | 48 | 1012.2 |
| 20260507064003 | 10 | 166 | 0.0 | 6.4 | 0.00 | 0.00 | 0.00 | 49 | 1012.1 |
| 20260507063003 | 10 | 158 | 0.0 | 8.0 | 0.00 | 0.00 | 0.00 | 50 | 1012.0 |
| 20260507062006 | 9 | 160 | 1.6 | 9.7 | 0.00 | 0.00 | 0.00 | 50 | 1012.1 |
| 20260507061003 | 9 | 159 | 0.0 | 3.2 | 0.00 | 0.00 | 0.00 | 54 | 1012.2 |
| 20260507060003 | 9 | 164 | 0.0 | 4.8 | 0.00 | 0.00 | 0.00 | 56 | 1012.2 |
| 20260507055005 | 8 | 165 | 0.0 | 4.8 | 0.00 | 0.00 | 0.00 | 58 | 1012.0 |
| 20260507054004 | 8 | 164 | 0.0 | 4.8 | 0.00 | 0.00 | 0.00 | 60 | 1011.9 |
| 20260507053004 | 8 | 155 | 1.6 | 8.0 | 0.00 | 0.00 | 0.00 | 60 | 1011.9 |
| 20260507052003 | 8 | 157 | 0.0 | 4.8 | 0.00 | 0.00 | 0.00 | 62 | 1011.9 |
| 20260507051006 | 8 | 158 | 1.6 | 11.3 | 0.00 | 0.00 | 0.00 | 61 | 1012.0 |
| 20260507050003 | 8 | 358 | 1.6 | 4.8 | 0.00 | 0.00 | 0.00 | 63 | 1012.0 |
| 20260507045003 | 8 | 344 | 0.0 | 8.0 | 0.00 | 0.00 | 0.00 | 64 | 1012.0 |
| 20260507044003 | 8 | 344 | 0.0 | 3.2 | 0.00 | 0.00 | 0.00 | 64 | 1012.0 |
| 20260507043003 | 8 | 344 | 0.0 | 4.8 | 0.00 | 0.00 | 0.00 | 63 | 1012.0 |
| 20260507042003 | 7 | 344 | 0.0 | 3.2 | 0.00 | 0.00 | 0.00 | 65 | 1011.9 |
| 20260507041003 | 7 | 344 | 0.0 | 4.8 | 0.00 | 0.00 | 0.00 | 65 | 1012.0 |
| 20260507040003 | 7 | 343 | 0.0 | 4.8 | 0.00 | 0.00 | 0.00 | 67 | 1012.0 |
| 20260507035003 | 7 | 343 | 1.6 | 4.8 | 0.00 | 0.00 | 0.00 | 68 | 1012.0 |
| 20260507034003 | 7 | 341 | 0.0 | 6.4 | 0.00 | 0.00 | 0.00 | 67 | 1012.0 |
| 20260507033003 | 7 | 341 | 0.0 | 1.6 | 0.00 | 0.00 | 0.00 | 65 | 1012.0 |
| 20260507032003 | 7 | 341 | 0.0 | 3.2 | 0.00 | 0.00 | 0.00 | 64 | 1012.1 |
| 20260507031003 | 7 | 341 | 0.0 | 3.2 | 0.00 | 0.00 | 0.00 | 62 | 1012.0 |
| 20260507030003 | 7 | 341 | 0.0 | 3.2 | 0.00 | 0.00 | 0.00 | 60 | 1011.8 |
| 20260507025007 | 7 | 341 | 1.6 | 6.4 | 0.00 | 0.00 | 0.00 | 59 | 1011.8 |
| 20260507024003 | 7 | 341 | 0.0 | 3.2 | 0.00 | 0.00 | 0.00 | 58 | 1011.8 |
| 20260507023003 | 7 | 0 | 0.0 | 0.0 | 0.00 | 0.00 | 0.00 | 59 | 1011.9 |
| 20260507022003 | 7 | 0 | 0.0 | 0.0 | 0.00 | 0.00 | 0.00 | 59 | 1011.9 |
| 20260507021003 | 7 | 0 | 0.0 | 0.0 | 0.00 | 0.00 | 0.00 | 58 | 1011.8 |
| 20260507020003 | 7 | 0 | 0.0 | 0.0 | 0.00 | 0.00 | 0.00 | 58 | 1011.9 |
| 20260507015003 | 7 | 0 | 0.0 | 0.0 | 0.00 | 0.00 | 0.00 | 58 | 1011.9 |
| 20260507014003 | 7 | 0 | 0.0 | 0.0 | 0.00 | 0.00 | 0.00 | 58 | 1011.8 |
| 20260507013006 | 7 | 0 | 0.0 | 0.0 | 0.00 | 0.00 | 0.00 | 58 | 1011.8 |
| 20260507012003 | 7 | 0 | 0.0 | 0.0 | 0.00 | 0.00 | 0.00 | 58 | 1011.9 |
| 20260507011003 | 7 | 0 | 0.0 | 0.0 | 0.00 | 0.00 | 0.00 | 57 | 1011.9 |
| 20260507010005 | 7 | 0 | 0.0 | 0.0 | 0.00 | 0.00 | 0.00 | 57 | 1011.9 |
| 20260507005003 | 7 | 0 | 0.0 | 0.0 | 0.00 | 0.00 | 0.00 | 57 | 1011.9 |
| 20260507004003 | 7 | 0 | 0.0 | 0.0 | 0.00 | 0.00 | 0.00 | 58 | 1011.9 |
| 20260507003003 | 7 | 0 | 0.0 | 0.0 | 0.00 | 0.00 | 0.00 | 58 | 1011.9 |
| 20260507002003 | 7 | 0 | 0.0 | 0.0 | 0.00 | 0.00 | 0.00 | 58 | 1011.9 |
| 20260507001003 | 7 | 0 | 0.0 | 0.0 | 0.00 | 0.00 | 0.00 | 58 | 1011.8 |
| 20260507000004 | 7 | 0 | 0.0 | 0.0 | 0.00 | 0.00 | 0.00 | 58 | 1011.9 |
| 20260506235003 | 7 | 0 | 0.0 | 0.0 | 0.00 | 0.00 | 0.00 | 59 | 1011.8 |
| 20260506234003 | 7 | 0 | 0.0 | 0.0 | 0.00 | 0.00 | 0.00 | 59 | 1011.6 |
| 20260506233006 | 7 | 0 | 0.0 | 0.0 | 0.00 | 0.00 | 0.00 | 62 | 1011.8 |
| 20260506232003 | 7 | 0 | 0.0 | 0.0 | 0.00 | 0.00 | 0.00 | 63 | 1011.8 |
| 20260506231006 | 7 | 0 | 0.0 | 0.0 | 0.00 | 0.00 | 0.00 | 63 | 1011.7 |
| 20260506230003 | 7 | 0 | 0.0 | 0.0 | 0.00 | 0.00 | 0.00 | 64 | 1011.6 |
| 20260506225005 | 7 | 0 | 0.0 | 0.0 | 0.00 | 0.00 | 0.00 | 63 | 1011.5 |
| 20260506224003 | 7 | 0 | 0.0 | 0.0 | 0.00 | 0.00 | 0.00 | 62 | 1011.5 |
| 20260506223006 | 7 | 0 | 0.0 | 0.0 | 0.00 | 0.00 | 0.00 | 62 | 1011.6 |
| 20260506222003 | 7 | 0 | 0.0 | 0.0 | 0.00 | 0.00 | 0.00 | 62 | 1011.5 |
| 20260506221003 | 7 | 0 | 0.0 | 0.0 | 0.00 | 0.00 | 0.00 | 62 | 1011.4 |
| 20260506220003 | 7 | 0 | 0.0 | 0.0 | 0.00 | 0.00 | 0.00 | 62 | 1011.3 |
| 20260506215003 | 7 | 0 | 0.0 | 0.0 | 0.00 | 0.00 | 0.00 | 62 | 1011.4 |
| 20260506214003 | 7 | 0 | 0.0 | 0.0 | 0.00 | 0.00 | 0.00 | 61 | 1011.3 |
| 20260506213003 | 7 | 0 | 0.0 | 0.0 | 0.00 | 0.00 | 0.00 | 61 | 1011.3 |
| 20260506212003 | 7 | 0 | 0.0 | 0.0 | 0.00 | 0.00 | 0.00 | 63 | 1011.1 |
| 20260506211003 | 7 | 0 | 0.0 | 0.0 | 0.00 | 0.00 | 0.00 | 64 | 1011.0 |
| 20260506210003 | 7 | 0 | 0.0 | 0.0 | 0.00 | 0.00 | 0.00 | 65 | 1011.0 |
| 20260506205003 | 7 | 0 | 0.0 | 0.0 | 0.00 | 0.00 | 0.00 | 65 | 1010.9 |
| 20260506204003 | 7 | 0 | 0.0 | 0.0 | 0.00 | 0.00 | 0.00 | 65 | 1011.0 |
| 20260506203003 | 7 | 0 | 0.0 | 0.0 | 0.00 | 0.00 | 0.00 | 66 | 1011.0 |
| 20260506202003 | 7 | 0 | 0.0 | 0.0 | 0.00 | 0.00 | 0.00 | 66 | 1011.2 |
| 20260506201003 | 7 | 0 | 0.0 | 0.0 | 0.00 | 0.00 | 0.00 | 65 | 1011.3 |
| 20260506200003 | 7 | 0 | 0.0 | 0.0 | 0.00 | 0.00 | 0.00 | 64 | 1011.3 |
| 20260506195003 | 7 | 0 | 0.0 | 0.0 | 0.00 | 0.00 | 0.00 | 62 | 1011.4 |
| 20260506194004 | 7 | 0 | 0.0 | 0.0 | 0.00 | 0.00 | 0.00 | 60 | 1011.4 |
| 20260506193003 | 7 | 0 | 0.0 | 0.0 | 0.00 | 0.00 | 0.00 | 60 | 1011.3 |
| 20260506192005 | 7 | 0 | 0.0 | 0.0 | 0.00 | 0.00 | 0.00 | 61 | 1011.2 |
| 20260506191003 | 7 | 0 | 0.0 | 0.0 | 0.00 | 0.00 | 0.00 | 62 | 1011.2 |
| 20260506190004 | 7 | 0 | 0.0 | 0.0 | 0.00 | 0.00 | 0.00 | 62 | 1011.3 |
| 20260506185006 | 7 | 341 | 0.0 | 1.6 | 0.00 | 0.00 | 0.00 | 62 | 1011.3 |
| 20260506184003 | 7 | 341 | 0.0 | 4.8 | 0.00 | 0.00 | 0.00 | 62 | 1011.2 |
| 20260506183003 | 7 | 341 | 0.0 | 1.6 | 0.00 | 0.00 | 0.00 | 63 | 1011.3 |
| 20260506182003 | 7 | 0 | 0.0 | 0.0 | 0.00 | 0.00 | 0.00 | 63 | 1011.3 |
| 20260506181003 | 7 | 0 | 0.0 | 0.0 | 0.00 | 0.00 | 0.00 | 63 | 1011.3 |
| 20260506180004 | 7 | 341 | 0.0 | 3.2 | 0.00 | 0.00 | 0.00 | 63 | 1011.4 |
| 20260506175003 | 7 | 341 | 0.0 | 3.2 | 0.00 | 0.00 | 0.00 | 63 | 1011.4 |
| 20260506174003 | 7 | 341 | 0.0 | 1.6 | 0.00 | 0.00 | 0.00 | 64 | 1011.4 |
| 20260506173003 | 8 | 341 | 0.0 | 1.6 | 0.00 | 0.00 | 0.00 | 63 | 1011.4 |
| 20260506172003 | 8 | 341 | 0.0 | 1.6 | 0.00 | 0.00 | 0.00 | 60 | 1011.3 |
| 20260506171003 | 8 | 341 | 0.0 | 1.6 | 0.00 | 0.00 | 0.00 | 60 | 1011.3 |
| 20260506170003 | 8 | 341 | 1.6 | 4.8 | 0.00 | 0.00 | 0.00 | 59 | 1011.2 |
| 20260506165005 | 8 | 341 | 0.0 | 1.6 | 0.00 | 0.00 | 0.00 | 58 | 1011.1 |
| 20260506164003 | 8 | 0 | 0.0 | 0.0 | 0.00 | 0.00 | 0.00 | 57 | 1011.1 |
| 20260506163003 | 8 | 341 | 0.0 | 1.6 | 0.00 | 0.00 | 0.00 | 56 | 1011.1 |
| 20260506162003 | 8 | 341 | 0.0 | 4.8 | 0.00 | 0.00 | 0.00 | 54 | 1011.0 |
| 20260506161006 | 8 | 341 | 1.6 | 6.4 | 0.00 | 0.00 | 0.00 | 53 | 1011.0 |
| 20260506160003 | 8 | 341 | 1.6 | 6.4 | 0.00 | 0.00 | 0.00 | 50 | 1010.9 |
| 20260506155004 | 8 | 341 | 1.6 | 6.4 | 0.00 | 0.00 | 0.00 | 48 | 1010.9 |
| 20260506154003 | 8 | 341 | 0.0 | 3.2 | 0.00 | 0.00 | 0.00 | 49 | 1011.0 |
| 20260506153003 | 8 | 341 | 1.6 | 3.2 | 0.00 | 0.00 | 0.00 | 48 | 1011.0 |
| 20260506152003 | 8 | 341 | 0.0 | 3.2 | 0.00 | 0.00 | 0.00 | 49 | 1011.0 |
| 20260506151003 | 8 | 341 | 0.0 | 3.2 | 0.00 | 0.00 | 0.00 | 50 | 1011.0 |
| 20260506150003 | 8 | 341 | 1.6 | 4.8 | 0.00 | 0.00 | 0.00 | 49 | 1010.9 |
| 20260506145003 | 9 | 341 | 1.6 | 4.8 | 0.00 | 0.00 | 0.00 | 48 | 1010.9 |
| 20260506144003 | 9 | 341 | 1.6 | 6.4 | 0.00 | 0.00 | 0.00 | 48 | 1010.8 |
| 20260506143003 | 9 | 341 | 1.6 | 4.8 | 0.00 | 0.00 | 0.00 | 48 | 1010.8 |
| 20260506142003 | 9 | 342 | 1.6 | 11.3 | 0.00 | 0.00 | 0.00 | 49 | 1010.6 |
| 20260506141004 | 8 | 343 | 3.2 | 9.7 | 0.00 | 0.00 | 0.00 | 47 | 1010.6 |
| 20260506140003 | 8 | 341 | 1.6 | 9.7 | 0.00 | 0.00 | 0.00 | 51 | 1010.6 |
| 20260506135003 | 9 | 341 | 4.8 | 9.7 | 0.00 | 0.00 | 0.00 | 51 | 1010.5 |
| 20260506134003 | 10 | 341 | 1.6 | 6.4 | 0.00 | 0.00 | 0.00 | 48 | 1010.5 |
| 20260506133005 | 10 | 342 | 3.2 | 11.3 | 0.00 | 0.00 | 0.00 | 48 | 1010.5 |
| 20260506132003 | 10 | 342 | 1.6 | 8.0 | 0.00 | 0.00 | 0.00 | 47 | 1010.5 |
| 20260506131003 | 10 | 342 | 0.0 | 3.2 | 0.00 | 0.00 | 0.00 | 45 | 1010.4 |
| 20260506130004 | 10 | 342 | 1.6 | 6.4 | 0.00 | 0.00 | 0.00 | 43 | 1010.4 |
| 20260506125003 | 10 | 342 | 1.6 | 8.0 | 0.00 | 0.00 | 0.00 | 43 | 1010.3 |
| 20260506124003 | 10 | 342 | 1.6 | 4.8 | 0.00 | 0.00 | 0.00 | 43 | 1010.3 |
| 20260506123003 | 10 | 342 | 1.6 | 6.4 | 0.00 | 0.00 | 0.00 | 42 | 1010.3 |
| 20260506122003 | 10 | 342 | 3.2 | 6.4 | 0.00 | 0.00 | 0.00 | 45 | 1010.4 |
| 20260506121003 | 10 | 342 | 1.6 | 6.4 | 0.00 | 0.00 | 0.00 | 46 | 1010.3 |
| 20260506120003 | 10 | 342 | 1.6 | 6.4 | 0.00 | 0.00 | 0.00 | 47 | 1010.4 |
| 20260506115003 | 10 | 342 | 1.6 | 6.4 | 0.00 | 0.00 | 0.00 | 44 | 1010.3 |
| 20260506114006 | 10 | 342 | 1.6 | 6.4 | 0.00 | 0.00 | 0.00 | 45 | 1010.2 |
| 20260506113003 | 10 | 342 | 1.6 | 4.8 | 0.00 | 0.00 | 0.00 | 47 | 1010.3 |
| 20260506112003 | 10 | 342 | 1.6 | 6.4 | 0.00 | 0.00 | 0.00 | 46 | 1010.2 |
| 20260506111006 | 10 | 342 | 1.6 | 4.8 | 0.00 | 0.00 | 0.00 | 43 | 1010.2 |
| 20260506110003 | 10 | 342 | 1.6 | 6.4 | 0.00 | 0.00 | 0.00 | 47 | 1010.1 |
| 20260506105003 | 9 | 342 | 3.2 | 9.7 | 0.00 | 0.00 | 0.00 | 47 | 1010.0 |
| 20260506104003 | 9 | 343 | 3.2 | 11.3 | 0.00 | 0.00 | 0.00 | 48 | 1010.0 |
| 20260506103003 | 9 | 342 | 1.6 | 11.3 | 0.00 | 0.00 | 0.00 | 50 | 1009.8 |
| 20260506102003 | 9 | 342 | 3.2 | 9.7 | 0.00 | 0.00 | 0.00 | 50 | 1009.7 |
| 20260506101003 | 9 | 341 | 1.6 | 8.0 | 0.00 | 0.00 | 0.00 | 51 | 1009.6 |
| 20260506100003 | 9 | 341 | 4.8 | 12.9 | 0.00 | 0.00 | 0.00 | 50 | 1009.4 |
| 20260506095003 | 10 | 342 | 4.8 | 12.9 | 0.00 | 0.00 | 0.00 | 49 | 1009.3 |
| 20260506094003 | 10 | 349 | 1.6 | 9.7 | 0.00 | 0.00 | 0.00 | 50 | 1009.2 |
| 20260506093003 | 10 | 342 | 3.2 | 9.7 | 0.00 | 0.00 | 0.00 | 51 | 1009.1 |
| 20260506092003 | 10 | 342 | 1.6 | 6.4 | 0.00 | 0.00 | 0.00 | 54 | 1008.9 |
| 20260506091003 | 10 | 342 | 3.2 | 12.9 | 0.00 | 0.00 | 0.00 | 56 | 1008.6 |
| 20260506090003 | 10 | 342 | 1.6 | 9.7 | 0.00 | 0.00 | 0.00 | 55 | 1008.5 |
| 20260506085003 | 10 | 342 | 1.6 | 9.7 | 0.00 | 0.00 | 0.00 | 55 | 1008.4 |
| 20260506084003 | 10 | 341 | 1.6 | 8.0 | 0.00 | 0.00 | 0.00 | 60 | 1008.4 |
| 20260506083006 | 10 | 341 | 3.2 | 9.7 | 0.00 | 0.00 | 0.00 | 61 | 1008.3 |
| 20260506082004 | 10 | 342 | 1.6 | 6.4 | 0.00 | 0.00 | 0.00 | 64 | 1008.3 |
| 20260506081003 | 10 | 342 | 1.6 | 6.4 | 0.00 | 0.00 | 0.00 | 61 | 1008.2 |
| 20260506073003 | 10 | 342 | 1.6 | 4.8 | 0.00 | 0.00 | 0.00 | 67 | 1007.7 |
| 20260506072003 | 10 | 342 | 1.6 | 4.8 | 0.00 | 0.00 | 0.00 | 67 | 1007.6 |
| 20260506071003 | 9 | 342 | 1.6 | 4.8 | 0.00 | 0.00 | 0.00 | 71 | 1007.6 |